Location: Byhalia Creek
(34.8270°N, 89.8040°W)
Time: 08:20:33
(UTC+00:00)

CSL-04 Rocket - Pass Details

Date: 22 April 2026
Orbit: 804 x 858 km, 98.7° (Epoch: 15 May)

Event Time Altitude Azimuth Distance (km) Brightness Sun altitude
Exits shadow 01:02:24 - 139° (SE) 3,176 6.2 -5.9°
Reaches altitude 10° 01:04:20 10° 132° (SE) 2,483 5.6 -6.3°
Maximum altitude 01:09:13 33° 69° (ENE) 1,399 4.5 -7.2°
Drops below altitude 10° 01:14:07 10° 7° (N) 2,496 6.3 -8.2°
Sets 01:16:41 0° 359° (N) 3,433 7.2 -8.7°
